This is the latest recevied weather packets stored in our database for station/object AB4KY. If no packets are shown the sender has not sent any weather packets the latest 10 day(s).
| Time | Temp. | Humidity | Pressure | Rain* | Wind** | Luminosity | Snow |
|---|---|---|---|---|---|---|---|
| 1778118494 | 10.56° C | 87% | 1012.4 hPa | 0 mm | - | 0 W/m² | - |
| 1778118190 | 10.56° C | 85% | 1012.3 hPa | 0 mm | - | 0 W/m² | - |
| 1778117887 | 11.11° C | 84% | 1012.3 hPa | 0 mm | - | 0 W/m² | - |
| 1778117584 | 11.11° C | 83% | 1012.4 hPa | 0 mm | - | 0 W/m² | - |
| 1778117282 | 11.11° C | 83% | 1012.1 hPa | 0 mm | - | 0 W/m² | - |
| 1778116977 | 11.11° C | 82% | 1012.3 hPa | 0 mm | - | 0 W/m² | - |
| 1778116675 | 11.11° C | 82% | 1012.5 hPa | 0 mm | - | 0 W/m² | - |
| 1778116371 | 11.11° C | 82% | 1012 hPa | 0 mm | - | 0 W/m² | - |
| 1778116071 | 11.11° C | 81% | 1012.2 hPa | 0 mm | - | 0 W/m² | - |
| 1778115767 | 11.67° C | 80% | 1012.1 hPa | 0 mm | - | 0 W/m² | - |
| 1778115465 | 11.67° C | 79% | 1012.3 hPa | 0 mm | - | 0 W/m² | - |
| 1778115161 | 12.22° C | 80% | 1012.4 hPa | 0 mm | - | 0 W/m² | - |
| 1778114857 | 12.22° C | 79% | 1012.3 hPa | 0 mm | - | 0 W/m² | - |
| 1778114555 | 12.22° C | 78% | 1012.2 hPa | 0 mm | - | 0 W/m² | - |
| 1778114251 | 12.22° C | 72% | 1012.1 hPa | 0 mm | - | 1 W/m² | - |
| 1778113946 | 12.78° C | 72% | 1011.9 hPa | 0 mm | - | 2 W/m² | - |
| 1778113643 | 12.78° C | 72% | 1012.1 hPa | 0 mm | - | 9 W/m² | - |
| 1778113339 | 13.33° C | 70% | 1011.9 hPa | 0 mm | - | 11 W/m² | - |
| 1778113036 | 12.78° C | 69% | 1011.7 hPa | 0 mm | - | 15 W/m² | - |
| 1778112733 | 13.33° C | 72% | 1011.9 hPa | 0 mm | - | 18 W/m² | - |
| 1778112429 | 13.33° C | 70% | 1011.8 hPa | 0 mm | - | 20 W/m² | - |
| 1778112125 | 13.33° C | 71% | 1011.8 hPa | 0 mm | - | 21 W/m² | - |
| 1778111822 | 13.33° C | 66% | 1011.7 hPa | 0 mm | - | 26 W/m² | - |
| 1778111517 | 13.33° C | 69% | 1011.6 hPa | 0 mm | - | 29 W/m² | - |
| 1778111215 | 13.33° C | 69% | 1011.6 hPa | 0 mm | - | 31 W/m² | - |
* Rain latest hour (hover to see other rain measurements)
** Current wind speed in m/s (hover to see current wind gust speed)